When you browse on this site, cookies collect data to enhance your experience and personalize the content and advertising you see.
Visit our Privacy Policy to learn more. By continuing to use the site, you agree to this use of cookies and data.
  • In United Kingdom
  • List of Countries
  • For 7 days
  • Water Temperature
  • Satellite Maps
  • Weather Map
  • Weather Widgets
  • user-avatar
    Login

    Hourly Weather Saidpur

    Today, 11 December, Tuesday

    Time Temperature Precipitation Wind Pressure Humidity
    00:00 +20°C° 0 mm 2 mps 757 mmHg 56%
    01:00 +19°C° 0 mm 2 mps 757 mmHg 57%
    02:00 +19°C° 0 mm 2 mps 757 mmHg 58%
    03:00 +18°C° 0 mm 2 mps 757 mmHg 59%
    04:00 +18°C° 0 mm 2 mps 757 mmHg 59%
    05:00 +18°C° 0 mm 2 mps 757 mmHg 58%
    06:00 +17°C° 0 mm 2 mps 757 mmHg 64%
    07:00 +18°C° 0 mm 2 mps 757 mmHg 60%
    08:00 +19°C° 0 mm 2 mps 758 mmHg 55%
    09:00 +21°C° 0 mm 3 mps 758 mmHg 50%
    10:00 +24°C° 0 mm 3 mps 758 mmHg 46%
    11:00 +25°C° 0 mm 3 mps 758 mmHg 42%
    12:00 +28°C° 0 mm 2 mps 758 mmHg 38%
    13:00 +28°C° 0 mm 2 mps 757 mmHg 36%
    14:00 +29°C° 0 mm 1 mps 756 mmHg 34%
    15:00 +29°C° 0 mm 1 mps 756 mmHg 32%
    16:00 +27°C° 0 mm 1 mps 756 mmHg 36%
    17:00 +26°C° 0 mm 1 mps 756 mmHg 39%
    18:00 +25°C° 0 mm 1 mps 756 mmHg 42%
    19:00 +24°C° 0 mm 1 mps 756 mmHg 45%
    20:00 +23°C° 0 mm 1 mps 757 mmHg 47%
    21:00 +23°C° 0 mm 1 mps 757 mmHg 49%
    22:00 +22°C° 0 mm 1 mps 757 mmHg 51%
    23:00 +22°C° 0 mm 1 mps 757 mmHg 53%

    Tomorrow, 12 December, Wednesday

    Time Temperature Precipitation Wind Pressure Humidity
    00:00 +20°C° 0 mm 2 mps 757 mmHg 56%
    01:00 +20°C° 0 mm 2 mps 757 mmHg 57%
    02:00 +19°C° 0 mm 2 mps 757 mmHg 58%
    03:00 +19°C° 0 mm 2 mps 757 mmHg 60%
    04:00 +19°C° 0 mm 2 mps 757 mmHg 59%
    05:00 +18°C° 0 mm 2 mps 758 mmHg 58%
    06:00 +18°C° 0 mm 2 mps 758 mmHg 57%
    07:00 +19°C° 0 mm 3 mps 758 mmHg 53%
    08:00 +20°C° 0 mm 3 mps 759 mmHg 50%
    09:00 +21°C° 0 mm 3 mps 760 mmHg 47%
    10:00 +24°C° 0 mm 3 mps 760 mmHg 44%
    11:00 +26°C° 0 mm 3 mps 760 mmHg 41%
    12:00 +27°C° 0 mm 3 mps 760 mmHg 38%
    13:00 +28°C° 0 mm 3 mps 759 mmHg 37%
    14:00 +28°C° 0 mm 2 mps 758 mmHg 35%
    15:00 +28°C° 0 mm 2 mps 757 mmHg 33%
    16:00 +27°C° 0 mm 2 mps 757 mmHg 36%
    17:00 +26°C° 0 mm 2 mps 757 mmHg 40%
    18:00 +24°C° 0 mm 2 mps 757 mmHg 43%
    19:00 +24°C° 0 mm 2 mps 758 mmHg 44%
    20:00 +23°C° 0 mm 2 mps 758 mmHg 46%
    21:00 +21°C° 0 mm 2 mps 759 mmHg 48%
    22:00 +21°C° 0 mm 2 mps 759 mmHg 50%
    23:00 +20°C° 0 mm 2 mps 759 mmHg 52%

    Day after tomorrow, 13 December, Thursday

    Time Temperature Precipitation Wind Pressure Humidity
    00:00 +19°C° 0 mm 2 mps 759 mmHg 54%
    01:00 +19°C° 0 mm 2 mps 759 mmHg 54%
    02:00 +18°C° 0 mm 2 mps 759 mmHg 54%
    03:00 +18°C° 0 mm 2 mps 759 mmHg 55%
    04:00 +17°C° 0 mm 2 mps 759 mmHg 54%
    05:00 +17°C° 0 mm 2 mps 759 mmHg 53%
    06:00 +17°C° 0 mm 2 mps 759 mmHg 52%
    07:00 +18°C° 0 mm 3 mps 760 mmHg 48%
    08:00 +19°C° 0 mm 3 mps 761 mmHg 45%
    09:00 +21°C° 0 mm 3 mps 761 mmHg 41%
    10:00 +22°C° 0 mm 3 mps 761 mmHg 38%
    11:00 +25°C° 0 mm 4 mps 761 mmHg 34%
    12:00 +27°C° 0 mm 4 mps 760 mmHg 31%
    13:00 +28°C° 0 mm 4 mps 759 mmHg 30%
    14:00 +28°C° 0 mm 3 mps 759 mmHg 28%
    15:00 +28°C° 0 mm 3 mps 758 mmHg 27%
    16:00 +27°C° 0 mm 2 mps 758 mmHg 30%
    17:00 +25°C° 0 mm 2 mps 758 mmHg 33%
    18:00 +24°C° 0 mm 2 mps 758 mmHg 36%
    19:00 +23°C° 0 mm 1 mps 759 mmHg 37%
    20:00 +22°C° 0 mm 1 mps 759 mmHg 39%
    21:00 +22°C° 0 mm 1 mps 760 mmHg 40%
    22:00 +21°C° 0 mm 1 mps 760 mmHg 42%
    23:00 +20°C° 0 mm 2 mps 760 mmHg 43%

    14 December, Friday

    Time Temperature Precipitation Wind Pressure Humidity
    00:00 +19°C° 0 mm 2 mps 760 mmHg 44%
    01:00 +19°C° 0 mm 2 mps 760 mmHg 45%
    02:00 +18°C° 0 mm 2 mps 760 mmHg 45%
    03:00 +18°C° 0 mm 2 mps 759 mmHg 45%
    04:00 +18°C° 0 mm 2 mps 759 mmHg 44%
    05:00 +17°C° 0 mm 2 mps 759 mmHg 43%
    06:00 +17°C° 0 mm 2 mps 759 mmHg 42%
    07:00 +19°C° 0 mm 2 mps 760 mmHg 40%
    08:00 +20°C° 0 mm 2 mps 761 mmHg 37%
    09:00 +21°C° 0 mm 2 mps 762 mmHg 34%
    10:00 +24°C° 0 mm 2 mps 761 mmHg 31%
    11:00 +26°C° 0 mm 2 mps 761 mmHg 29%
    12:00 +27°C° 0 mm 2 mps 761 mmHg 26%
    13:00 +28°C° 0 mm 2 mps 760 mmHg 26%
    14:00 +28°C° 0 mm 2 mps 759 mmHg 26%
    15:00 +28°C° 0 mm 2 mps 759 mmHg 25%
    16:00 +27°C° 0 mm 2 mps 759 mmHg 28%
    17:00 +25°C° 0 mm 2 mps 759 mmHg 32%
    18:00 +24°C° 0 mm 1 mps 759 mmHg 35%
    19:00 +23°C° 0 mm 1 mps 760 mmHg 36%
    20:00 +23°C° 0 mm 1 mps 761 mmHg 37%
    21:00 +22°C° 0 mm 1 mps 761 mmHg 39%
    22:00 +21°C° 0 mm 1 mps 761 mmHg 40%
    23:00 +20°C° 0 mm 2 mps 761 mmHg 41%

    15 December, Saturday

    Time Temperature Precipitation Wind Pressure Humidity
    00:00 +19°C° 0 mm 2 mps 761 mmHg 42%
    01:00 +19°C° 0 mm 2 mps 761 mmHg 43%
    02:00 +18°C° 0 mm 2 mps 760 mmHg 43%
    03:00 +18°C° 0 mm 2 mps 760 mmHg 44%
    04:00 +18°C° 0 mm 1 mps 760 mmHg 44%
    05:00 +18°C° 0 mm 1 mps 760 mmHg 44%
    06:00 +16°C° 0 mm 1 mps 760 mmHg 45%
    07:00 +18°C° 0 mm 2 mps 761 mmHg 42%
    08:00 +19°C° 0 mm 2 mps 761 mmHg 39%
    09:00 +20°C° 0 mm 2 mps 762 mmHg 36%
    10:00 +23°C° 0 mm 2 mps 762 mmHg 32%
    11:00 +25°C° 0 mm 3 mps 762 mmHg 28%
    12:00 +26°C° 0 mm 3 mps 761 mmHg 25%
    13:00 +27°C° 0 mm 3 mps 761 mmHg 24%
    14:00 +27°C° 0 mm 3 mps 760 mmHg 22%
    15:00 +28°C° 0 mm 2 mps 759 mmHg 21%
    16:00 +26°C° 0 mm 2 mps 760 mmHg 24%
    17:00 +25°C° 0 mm 2 mps 760 mmHg 26%
    18:00 +23°C° 0 mm 1 mps 761 mmHg 29%
    19:00 +23°C° 0 mm 2 mps 761 mmHg 30%
    20:00 +21°C° 0 mm 2 mps 762 mmHg 31%
    21:00 +21°C° 0 mm 2 mps 762 mmHg 32%
    22:00 +20°C° 0 mm 2 mps 762 mmHg 34%
    23:00 +21°C° 0 mm 1 mps 762 mmHg 35%

    16 December, Sunday

    Time Temperature Precipitation Wind Pressure Humidity
    00:00 +21°C° 0 mm 1 mps 762 mmHg 36%
    01:00 +20°C° 0 mm 2 mps 761 mmHg 36%
    02:00 +19°C° 0 mm 2 mps 761 mmHg 37%
    03:00 +19°C° 0 mm 2 mps 761 mmHg 37%
    04:00 +19°C° 0 mm 2 mps 761 mmHg 36%
    05:00 +19°C° 0 mm 2 mps 761 mmHg 36%
    06:00 +18°C° 0 mm 3 mps 761 mmHg 36%
    07:00 +19°C° 0 mm 2 mps 761 mmHg 36%
    08:00 +19°C° 0 mm 2 mps 762 mmHg 36%
    09:00 +19°C° 0 mm 2 mps 763 mmHg 35%
    10:00 +21°C° 0 mm 2 mps 762 mmHg 34%
    11:00 +23°C° 0 mm 2 mps 762 mmHg 32%
    12:00 +24°C° 0 mm 3 mps 761 mmHg 30%
    13:00 +25°C° 0 mm 3 mps 761 mmHg 29%
    14:00 +26°C° 0 mm 2 mps 760 mmHg 29%
    15:00 +26°C° 0 mm 2 mps 760 mmHg 28%
    16:00 +25°C° 0 mm 2 mps 760 mmHg 31%
    17:00 +24°C° 0 mm 1 mps 760 mmHg 33%
    18:00 +23°C° 0 mm 1 mps 760 mmHg 36%
    19:00 +22°C° 0 mm 1 mps 760 mmHg 38%
    20:00 +22°C° 0 mm 1 mps 761 mmHg 40%
    21:00 +21°C° 0 mm 1 mps 761 mmHg 42%
    22:00 +21°C° 0 mm 1 mps 761 mmHg 43%
    23:00 +20°C° 0 mm 2 mps 760 mmHg 45%
    Show more